Regional Weather Roundup
Issued by NWS

Home | Current Version | Previous Version | Graphics & Text | Print | Product List | Glossary Off
Versions: 1 2 3 4 5 6 7 8 9 10 11 12 13 14 15 16 17 18 19 20 21 22 23 24 25 26 27 28 29 30 31 32 33 34 35 36 37 38 39 40 41 42 43 44 45 46 47 48 49 50

000
ASUS43 KLSX 181957
RWRMO

WEATHER SUMMARY FOR MISSOURI
NATIONAL WEATHER SERVICE SPRINGFIELD MO
300 PM CDT FRI AUG 18 2017

NOTE: "FAIR" INDICATES FEW OR NO CLOUDS BELOW 12,000 FEET WITH NO
       SIGNIFICANT WEATHER AND/OR OBSTRUCTIONS TO VISIBILITY.
       CURRENT SKY AND/OR WEATHER CONDITIONS ARE NOT AVAILABLE FOR
       CHILLICOTHE AND FARMINGTON.

MOZ001>031-035>038-043-044-053-054-182100-
...NORTHERN AND WESTERN MISSOURI...

CITY           SKY/WX    TMP DP  RH WIND       PRES   REMARKS
KANSAS CTY INT MOSUNNY   87  70  56 W8        29.92F HX  92
LEE`S SUMMIT   SUNNY     85  69  58 SW10      29.94F
ST JOSEPH      MOSUNNY   90  70  51 VRB3      29.89F HX  95
CHILLICOTHE      N/A     89  64  43 SW10      29.90F HX  90

$$
MOZ066>068-077>081-088>096-101>105-182100-
...SOUTHWEST MISSOURI...

CITY           SKY/WX    TMP DP  RH WIND       PRES   REMARKS
SPRINGFIELD    CLOUDY    83  73  72 SW9       29.98F
JOPLIN         PTSUNNY   87  77  72 S8        29.96F HX  99
BRANSON        MOSUNNY   86  70  58 SW5       30.01F HX  90

$$
MOZ032>034-039>042-045>050-055>058-069>072-182100-
...CENTRAL MISSOURI...

CITY           SKY/WX    TMP DP  RH WIND       PRES   REMARKS
COLUMBIA       NOT AVBL
JEFFERSON CITY CLOUDY    80  68  66 S6        29.95F
ROLLA          CLOUDY    80  67  64 SW6       30.00F
SEDALIA        CLOUDY    79  72  79 S8        29.97F
WARRENSBURG    CLOUDY    81  68  65 S7        29.93F

$$
MOZ051-052-059>065-182100-
...EAST CENTRAL MISSOURI...

CITY           SKY/WX    TMP DP  RH WIND       PRES   REMARKS
ST LOUIS INTL  NOT AVBL

$$
MOZ072>076-082>087-097>100-106>115-182100-
...SOUTH CENTRAL AND SOUTHEAST MISSOURI...

CITY           SKY/WX    TMP DP  RH WIND       PRES   REMARKS
CAPE GIRARDEAU SUNNY     85  66  53 S6        29.96F
POPLAR BLUFF   SUNNY     88  65  46 VRB5      29.96F HX  90
WEST PLAINS    SUNNY     85  58  39 SW9       30.02F

$$



USA.gov is the U.S. government's official web portal to all federal, state and local government web resources and services.